sat.trackr.live / text

‹ back to catalog

STARLINK-11204 [DTC]

NORAD 60931 · 2024-155H

PAYLOAD ACTIVE UNKNOWN

§ Identity

Operator
Country
US
Launch date
2024-08-31
Launch site
AFWTR
Launch vehicle
Mass (kg)
RCS (m²)

Purposes: comms

External: N2YO · Heavens-Above · Gunter

§ Orbital elements

Epoch: 2026-05-24T21:31:32.386368Z

Period
91.74 min
Inclination
53.1567°
Eccentricity
0.0000814
Mean motion
15.69715629 rev/d
Perigee alt
359.2 km
Apogee alt
360.3 km
Semi-major
6,737.8 km
B*
3.4987e-5
RAAN
325.4245°
Arg perigee
85.0778°
Mean anomaly
275.0333°
Rev number
10,037

§ Raw data

STARLINK-11204 [DTC]1 60931U 24155H   26144.89690262  .00003653  00000+0  34987-4 0  99962 60931  53.1567 325.4245 0000814  85.0778 275.0333 15.69715629100376

JSON: /api/v1/satellites/60931 · /tle

For live sub-satellite position, see the globe view (requires WebGL).

§ Visibility from observer

Set your observer location to see the next 7 days of passes ≥ 10°. The values pass through the URL so the page stays shareable.

No JS? Fill the form by hand. The geolocation button needs JavaScript.